Regional Weather Roundup
Issued by NWS

Home | Current Version | Previous Version | Text Only | Print | Product List | Glossary On
Versions: 1 2 3 4 5 6 7 8 9 10 11 12 13 14 15 16 17 18 19 20 21 22 23 24 25 26 27 28 29 30 31 32 33 34 35 36 37 38 39 40 41 42 43 44 45 46 47 48 49 50
000
ASUS43 KOAX 131410
RWRNE

WEATHER ROUNDUP FOR NEBRASKA
NATIONAL WEATHER SERVICE OMAHA NE
800 AM CST SAT FEB 13 2016

NOTES: SATELLITE DATA IS BEING USED TO AUGMENT CLOUD COVER ABOVE
       12000 FEET.
       "FAIR" INDICATES FEW OR NO CLOUDS BELOW 12,000 FEET WITH NO
       SIGNIFICANT WEATHER AND/OR OBSTRUCTIONS TO VISIBILITY.

  * THESE STATIONS DO NOT REPORT WEATHER SUCH AS RAIN...SNOW OR FOG.

NEZ001>004-019>022-054>056-131500-
NEBRASKA PANHANDLE

CITY           SKY/WX    TMP DP  RH WIND       PRES   REMARKS
SCOTTSBLUFF    CLOUDY    30  28  92 SE9       30.07F WCI  22
ALLIANCE       CLOUDY    31  30  96 S15       30.07F FOG     WCI  20
CHADRON        CLOUDY    33  29  85 S8        30.04F WCI  26
KIMBALL        FOG       29  29 100 S7        30.08F VSB 1/2 WCI  22
SIDNEY         CLOUDY    29  29 100 S14       30.11F WCI  18
$$

NEZ057>060-069>072-079>082-131500-
SOUTHWEST NEBRASKA

CITY           SKY/WX    TMP DP  RH WIND       PRES   REMARKS
NORTH PLATTE   CLOUDY    21  19  92 SE12      30.27F WCI   9
IMPERIAL       CLOUDY    26  24  92 S17       30.22F WCI  13
LEXINGTON      CLOUDY    20  15  79 SE14      30.35F WCI   7
MCCOOK         CLOUDY    21  19  92 SE10      30.33F WCI  10
OGALLALA       CLOUDY    29  27  92 S10G16    30.20S FOG     WCI  20
$$

NEZ005>010-023>029-035>040-094-131500-
NORTH CENTRAL NEBRASKA

CITY           SKY/WX    TMP DP  RH WIND       PRES   REMARKS
VALENTINE      CLOUDY    23  21  92 S18       30.21F WCI   9
AINSWORTH      CLOUDY    19  15  86 S20G26    30.25F WCI   3
BROKEN BOW     CLOUDY    17  11  77 S18       30.33F WCI   1
O`NEILL        CLOUDY    15  10  82 SE14      30.39S WCI   0
ORD            CLOUDY    15   8  73 SE14      30.39F WCI   0
THEDFORD       CLOUDY    23  21  94 S16G24    30.23F FOG     WCI   9
$$

NEZ041-046>049-061>064-073>077-083>087-131500-
SOUTH CENTRAL NEBRASKA

CITY           SKY/WX    TMP DP  RH WIND       PRES   REMARKS
GRAND ISLAND   CLOUDY    14   6  70 SE13      30.46F WCI   0
AURORA         CLOUDY    14   6  70 SE13      30.46F WCI   0
HASTINGS       CLOUDY    15   7  70 SE12      30.43F WCI   2
HEBRON         CLOUDY    18   9  66 E7        30.50F WCI   9
HOLDREGE       CLOUDY    19  15  87 SE12      30.39S WCI   6
KEARNEY *      CLOUDY    16   9  73 SE12      30.40F WCI   3
YORK           CLOUDY    14   9  79 SE10      30.48F WCI   1
$$

NEZ011>018-030>034-042>045-131500-
NORTHEAST NEBRASKA

CITY           SKY/WX    TMP DP  RH WIND       PRES   REMARKS
NORFOLK        CLOUDY    11   3  70 SE12      30.47F WCI  -3
ALBION         CLOUDY    13   7  78 SE10      30.45F WCI   0
BLAIR          CLOUDY    10   2  72 SE7       30.55F WCI  -1
COLUMBUS *     CLOUDY    12   0  57 E9        30.50F WCI   0
FREMONT        CLOUDY    11   1  65 E9        30.55F WCI  -2
TEKAMAH        CLOUDY     8   0  69 E10       30.59F WCI  -6
WAYNE          CLOUDY     8   0  71 SE9       30.53S WCI  -6
$$

NEZ050>053-065>068-078-088>093-131500-
SOUTHEAST NEBRASKA

CITY           SKY/WX    TMP DP  RH WIND       PRES   REMARKS
LINCOLN        CLOUDY    16   6  65 SE9       30.56S WCI   4
OMAHA EPPLEY   CLOUDY    10   1  67 E9        30.61F WCI  -3
BEATRICE       CLOUDY    16   2  55 SE7       30.54F WCI   6
FALLS CITY     CLOUDY    15   4  61 E8        30.59S WCI   4
NEBRASKA CITY  CLOUDY    13   3  63 E7        30.58S WCI   3
PLATTSMOUTH    CLOUDY    11   2  67 E6        30.58F WCI   2
$$

NEZ044-045-051>053-067-131500-
OMAHA AREA

CITY           SKY/WX    TMP DP  RH WIND       PRES   REMARKS
OMAHA EPPLEY   CLOUDY    10   1  67 E9        30.61F WCI  -3
BLAIR          CLOUDY    10   2  72 SE7       30.55F WCI  -1
FREMONT        CLOUDY    11   1  65 E9        30.55F WCI  -2
MILLARD        CLOUDY    12   1  63 SE6       30.59F WCI   2
OFFUTT AFB     CLOUDY    10   1  67 E8        30.59F WCI  -1
PLATTSMOUTH    CLOUDY    11   2  67 E6        30.58F WCI   2
WAHOO          CLOUDY    13   5  70 SE10      30.55F WCI   0
$$



USA.gov is the U.S. government's official web portal to all federal, state and local government web resources and services.